SCOUT X-4 DEB, 2088

Orbit data source: Space-Track

SCOUT X-4 DEB, 2088 is space debris in LEO originally from a launch on Fri, 19 Nov 1965 UTC launched from the Wallops Island (WLPIS). Debris objects in space refer to the collection of defunct objects orbiting the Earth. Examples of debris include non-operational satellites, rocket bodies, and fragments generated from explosions, collisions, or faulty payload assembly.

Loading next visibility...
SCOUT X-4 DEB details
Identifier
2088, 1965-093D
Orbit
LEO
Last TLE update8 hours ago
Origin
Flag of USGSFC (US)
ManufacturerUnknown
MissionSpacecraft
Bus & MotorUnknown
MassUnknown
Launch date (UTC)
1965-11-19 (59 years ago)
Launch vehicleUnknown
Launch site
Wallops Island (WLPIS)
Object type
Payload
Rocket body
Debris
Shape & HBRUnknown
Radar Cross SectionSmall (<0.1 m²)

Expand to show TLE details & history

TLE from 8 hours ago
0 SCOUT X-4 DEB
1 02088U 65093D   25044.45426514  .00002227  00000-0  47637-3 0  9990
2 02088  59.7163 105.5416 0075268 326.9367  32.6986 14.60178331 82465
Epoch: 2025-02-13T10:54Z
Definitive object data (Epoch: 2025-02-13T10:54:08.508Z)
Latitude0.00005°
Longitude158.27603°
Altitude649.455 km
Speed7.557 km/s
True Right ascension07h 02m 09s
True Declination0° 00' 00"
Sunlit
Object was in full shadow at TLE epoch
Visualization TLE readout
Latitude-41.0533°
Longitude7.5522°
Altitude713.895 km
Speed7.494 km/s
Apparent Right ascension19h 36m 47s
Apparent Declination-86° 46' 24"
Sunlit
Object is in daylight
Visualization observer readout
Local Sidereal Time21:07:21
Azimuth181.553° SSW
Elevation-36.927°
Doppler factor1
Orbital elements
Apogee altitude745.079 km
Perigee altitude638.65 km
Semi-major axis7,070.001 km
Eccentricity0.0075268
Inclination59.7163°
RAAN105.5416°
Arg. of periapsis326.9367°
True anomaly33.16826°
Mean anomaly32.6986°
Eccentric anomaly32.93305°
Mean motion3.65102 °/min
BSTAR0.00047637
Orbital period98.6 mins
Loading maneuver chart data...
Loading historical data...
Loading historical data...
Loading historical data...
Loading historical data...
Loading historical data...
Loading historical data...
Loading historical data...
Other satellites on launch #93 in the year 1965 (1965-11-19 UTC)

SCOUT X-4 DEB Visibility forecast

Observer location: undefined°, undefined

Span
Click to sort rows by Start time (UTC) header in descending order
Start Az.
Max El. time (UTC)
Max El. Az.
Max El.
End time (UTC)
End Az.
7 mins2025-02-14 05:06:39.535Z170.887° S2025-02-14 05:09:39.535Z126.032° SE24.125°2025-02-14 05:13:39.535Z64.727° ENE
7 mins2025-02-14 06:48:39.535Z252.432° W2025-02-14 06:51:39.535Z309.364° NW33.888°2025-02-14 06:55:39.535Z23.719° NE
4 mins2025-02-14 12:02:39.535Z9.128° NNE2025-02-14 12:03:39.535Z22.124° NNE14.522°2025-02-14 12:06:39.535Z59.205° ENE
8 mins2025-02-14 13:43:39.535Z332.006° NNW2025-02-14 13:46:39.535Z21.702° NNE40.207°2025-02-14 13:51:39.535Z126.325° SE
5 mins2025-02-14 15:26:39.535Z274.892° WNW2025-02-14 15:28:39.535Z246.043° WSW19.413°2025-02-14 15:31:39.535Z204.684° SW
|